Weather History for Clinton-Sherman, OK

Change the Weather History Date:

Sunday, October 5, 2014

  Actual Average Record
Temperature  
Mean Temperature 71 °F -  
Max Temperature 88 °F 74 °F 91 °F (2007)
Min Temperature 54 °F 53 °F 39 °F (2001)
Cooling Degree Days 6    
Growing Degree Days 21 (Base 50)    
Moisture  
Dew Point 44 °F    
Average Humidity 43    
Maximum Humidity 66    
Minimum Humidity 16    
Precipitation  
Precipitation 0.00 in - - ()
Sea Level Pressure  
Sea Level Pressure 29.84 in    
Wind  
Wind Speed 7 mph (South)    
Max Wind Speed 12 mph    
Max Gust Speed -    
Visibility 10 miles    
Events      
Averages and records for this station are not official NWS values.
T = Trace of Precipitation, MM = Missing Value Source: NWS Daily Summary

Daily Weather History Graph

Daily Weather History Graph

Search for Another Location

Airport:

Trip Planner

Search our weather history database for the weather conditions in past years. The results will help you decide how hot, cold, wet, or windy it might be!

Date:

Astronomy

Oct. 05, 2014 Rise Set
Actual Time 7:34 AM CDT 7:14 PM CDT
Civil Twilight 7:09 AM CDT 7:40 PM CDT
Nautical Twilight 6:39 AM CDT 8:09 PM CDT
Astronomical Twilight 6:10 AM CDT 8:39 PM CDT
Moon 5:28 PM CDT (10/5) 4:20 AM CDT (10/5)
Length of Visible Light 12h 30m
Length of Day
11h 40m
Waxing Gibbous, 89% of the Moon is Illuminated
Oct 5
Waxing Gibbous
Oct 8
Full
Oct 15
Last Quarter
Oct 23
New
Oct 30
First Quarter

Hourly Weather History & Observations

Time (CDT) Temp. Dew Point Humidity Pressure Visibility Wind Dir Wind Speed Gust Speed Precip Events Conditions
12:53 AM 60.1 °F 43.0 °F 53% 29.88 in - SSW 9.2 mph - N/A   Clear
1:53 AM 61.0 °F 43.0 °F 52% 29.87 in - South 10.4 mph - N/A   Clear
2:53 AM 60.1 °F 42.1 °F 51% 29.86 in - South 11.5 mph - N/A   Clear
3:53 AM 57.0 °F 42.1 °F 57% 29.85 in - SW 9.2 mph - N/A   Clear
4:53 AM 55.9 °F 43.0 °F 62% 29.85 in - SW 6.9 mph - N/A   Clear
5:53 AM 55.0 °F 42.1 °F 62% 29.85 in - SW 8.1 mph - N/A   Clear
6:53 AM 55.0 °F 43.0 °F 64% 29.86 in - SW 8.1 mph - N/A   Clear
7:53 AM 54.0 °F 43.0 °F 66% 29.88 in - North 3.5 mph - N/A   Clear
8:53 AM 60.1 °F 45.0 °F 57% 29.88 in - NNE 4.6 mph - N/A   Clear
9:53 AM 68.0 °F 46.0 °F 45% 29.88 in - NNE 6.9 mph - N/A   Clear
10:53 AM 68.0 °F 46.9 °F 47% 29.90 in - North 6.9 mph - N/A   Clear
11:53 AM 73.9 °F 48.0 °F 40% 29.88 in - NE 4.6 mph - N/A   Clear
12:53 PM 82.0 °F 48.0 °F 30% 29.86 in - NE 4.6 mph - N/A   Clear
1:53 PM 82.9 °F 46.9 °F 28% 29.83 in - Calm Calm - N/A   Clear
2:53 PM 84.0 °F 46.0 °F 26% 29.80 in - Variable 5.8 mph - N/A   Clear
3:53 PM 86.0 °F 43.0 °F 22% 29.78 in - ESE 5.8 mph - N/A   Clear
4:53 PM 88.0 °F 37.0 °F 16% 29.77 in 10.0 mi South 8.1 mph - N/A   Clear
5:53 PM 87.1 °F 37.0 °F 17% 29.77 in 10.0 mi SSW 6.9 mph - N/A   Clear
6:53 PM 84.0 °F 37.9 °F 19% 29.78 in 10.0 mi Calm Calm - N/A   Clear
7:53 PM 73.9 °F 41.0 °F 30% 29.79 in 10.0 mi SSE 3.5 mph - N/A   Clear
8:53 PM 73.0 °F 46.0 °F 38% 29.81 in 10.0 mi SE 6.9 mph - N/A   Clear
9:53 PM 66.9 °F 45.0 °F 45% 29.83 in 10.0 mi SSE 6.9 mph - N/A   Clear
10:53 PM 66.9 °F 46.9 °F 49% 29.85 in 10.0 mi NNW 8.1 mph - N/A   Clear
11:53 PM 66.0 °F 46.0 °F 48% 29.84 in 10.0 mi NE 9.2 mph - N/A   Clear